When you browse on this site, cookies collect data to enhance your experience and personalize the content and advertising you see.
Visit our Privacy Policy to learn more. By continuing to use the site, you agree to this use of cookies and data.
  • In Hungary
  • List of Countries
  • For 7 days
  • Water Temperature
  • Weather Map
  • News
  • Weather Widgets
  • user-avatar
    Login

    Hourly Weather Sverdly

    Today, 7 December, Saturday

    Time Temperature Precipitation Wind Pressure Humidity
    00:00 -1°C° 0.1 mm 5 mps 739 mmHg 88%
    01:00 -1°C° 0.1 mm 5 mps 739 mmHg 88%
    02:00 -1°C° 0 mm 5 mps 738 mmHg 88%
    03:00 -1°C° 0.2 mm 5 mps 738 mmHg 90%
    04:00 -2°C° 0.2 mm 5 mps 738 mmHg 91%
    05:00 -2°C° 0.2 mm 5 mps 737 mmHg 93%
    06:00 -2°C° 0.8 mm 5 mps 737 mmHg 93%
    07:00 -2°C° 0.8 mm 5 mps 737 mmHg 93%
    08:00 -2°C° 0.8 mm 5 mps 737 mmHg 93%
    09:00 -2°C° 0.4 mm 5 mps 736 mmHg 92%
    10:00 -2°C° 0.4 mm 5 mps 736 mmHg 90%
    11:00 -3°C° 0.4 mm 6 mps 735 mmHg 88%
    12:00 -3°C° 0 mm 6 mps 735 mmHg 85%
    13:00 -2°C° 0 mm 6 mps 735 mmHg 81%
    14:00 -2°C° 0 mm 6 mps 734 mmHg 78%
    15:00 -2°C° 0.1 mm 6 mps 734 mmHg 81%
    16:00 -2°C° 0.1 mm 6 mps 733 mmHg 83%
    17:00 -2°C° 0.1 mm 7 mps 733 mmHg 86%
    18:00 -2°C° 0 mm 7 mps 733 mmHg 87%
    19:00 -2°C° 0 mm 7 mps 732 mmHg 88%
    20:00 -1°C° 0 mm 7 mps 732 mmHg 89%
    21:00 0°C° 0.2 mm 7 mps 732 mmHg 90%
    22:00 0°C° 0.2 mm 7 mps 731 mmHg 90%
    23:00 +1°C° 0.2 mm 8 mps 731 mmHg 91%

    Tomorrow, 8 December, Sunday

    Time Temperature Precipitation Wind Pressure Humidity
    00:00 +2°C° 0.1 mm 7 mps 731 mmHg 88%
    01:00 0°C° 0.1 mm 7 mps 732 mmHg 85%
    02:00 0°C° 0.1 mm 7 mps 732 mmHg 83%
    03:00 0°C° 0 mm 7 mps 732 mmHg 83%
    04:00 -1°C° 0 mm 7 mps 732 mmHg 84%
    05:00 -1°C° 0 mm 7 mps 732 mmHg 85%
    06:00 -1°C° 0 mm 7 mps 733 mmHg 87%
    07:00 -1°C° 0 mm 7 mps 734 mmHg 88%
    08:00 -1°C° 0 mm 7 mps 735 mmHg 90%
    09:00 -1°C° 0 mm 6 mps 735 mmHg 88%
    10:00 -1°C° 0 mm 6 mps 736 mmHg 86%
    11:00 -1°C° 0 mm 6 mps 736 mmHg 83%
    12:00 0°C° 0 mm 5 mps 737 mmHg 83%
    13:00 0°C° 0 mm 5 mps 737 mmHg 82%
    14:00 0°C° 0 mm 5 mps 737 mmHg 82%
    15:00 0°C° 0 mm 5 mps 737 mmHg 84%
    16:00 0°C° 0 mm 5 mps 736 mmHg 86%
    17:00 -1°C° 0 mm 5 mps 736 mmHg 89%
    18:00 0°C° 0 mm 5 mps 736 mmHg 91%
    19:00 0°C° 0 mm 5 mps 736 mmHg 93%
    20:00 0°C° 0 mm 5 mps 736 mmHg 95%
    21:00 +1°C° 0.1 mm 6 mps 735 mmHg 92%
    22:00 +2°C° 0.1 mm 6 mps 735 mmHg 90%
    23:00 +2°C° 0.1 mm 7 mps 734 mmHg 87%

    Day after tomorrow, 9 December, Monday

    Time Temperature Precipitation Wind Pressure Humidity
    00:00 +2°C° 0.3 mm 7 mps 734 mmHg 89%
    01:00 +2°C° 0.3 mm 7 mps 733 mmHg 90%
    02:00 +2°C° 0.3 mm 7 mps 733 mmHg 91%
    03:00 +2°C° 0.1 mm 7 mps 733 mmHg 91%
    04:00 +2°C° 0.1 mm 7 mps 732 mmHg 90%
    05:00 +2°C° 0.1 mm 7 mps 732 mmHg 90%
    06:00 +3°C° 0 mm 7 mps 732 mmHg 89%
    07:00 +3°C° 0 mm 6 mps 732 mmHg 89%
    08:00 +3°C° 0 mm 6 mps 732 mmHg 89%
    09:00 +3°C° 0 mm 6 mps 733 mmHg 89%
    10:00 +4°C° 0 mm 6 mps 733 mmHg 88%
    11:00 +4°C° 0 mm 6 mps 733 mmHg 88%
    12:00 +4°C° 0.3 mm 6 mps 733 mmHg 88%
    13:00 +4°C° 0.3 mm 6 mps 732 mmHg 88%
    14:00 +4°C° 0.3 mm 6 mps 732 mmHg 89%
    15:00 +3°C° 0 mm 5 mps 732 mmHg 90%
    16:00 +3°C° 0 mm 5 mps 733 mmHg 91%
    17:00 +4°C° 0 mm 4 mps 733 mmHg 92%
    18:00 +3°C° 0.1 mm 4 mps 733 mmHg 92%
    19:00 +3°C° 0.1 mm 4 mps 734 mmHg 91%
    20:00 +3°C° 0.1 mm 4 mps 734 mmHg 91%
    21:00 +3°C° 0 mm 4 mps 734 mmHg 91%
    22:00 +1°C° 0 mm 4 mps 734 mmHg 91%
    23:00 +1°C° 0 mm 4 mps 735 mmHg 91%

    10 December, Tuesday

    Time Temperature Precipitation Wind Pressure Humidity
    00:00 +1°C° 0 mm 4 mps 735 mmHg 91%
    01:00 +1°C° 0 mm 4 mps 735 mmHg 90%
    02:00 +1°C° 0 mm 4 mps 735 mmHg 89%
    03:00 +1°C° 0 mm 4 mps 735 mmHg 89%
    04:00 +2°C° 0 mm 5 mps 735 mmHg 90%
    05:00 +2°C° 0 mm 5 mps 735 mmHg 90%
    06:00 +2°C° 0 mm 5 mps 735 mmHg 89%
    07:00 +2°C° 0 mm 5 mps 735 mmHg 88%
    08:00 +2°C° 0 mm 5 mps 735 mmHg 87%
    09:00 +2°C° 0 mm 5 mps 736 mmHg 86%
    10:00 +2°C° 0 mm 6 mps 736 mmHg 86%
    11:00 +2°C° 0 mm 6 mps 736 mmHg 86%
    12:00 +2°C° 0.1 mm 6 mps 736 mmHg 86%
    13:00 +2°C° 0.1 mm 6 mps 737 mmHg 87%
    14:00 +2°C° 0.1 mm 6 mps 737 mmHg 87%
    15:00 +2°C° 0.2 mm 6 mps 738 mmHg 88%
    16:00 +1°C° 0.2 mm 6 mps 738 mmHg 90%
    17:00 +1°C° 0.2 mm 6 mps 739 mmHg 91%
    18:00 -1°C° 0.1 mm 6 mps 740 mmHg 86%
    19:00 0°C° 0.1 mm 5 mps 741 mmHg 80%
    20:00 -1°C° 0.1 mm 5 mps 743 mmHg 75%
    21:00 -2°C° 0 mm 5 mps 743 mmHg 75%
    22:00 -2°C° 0 mm 4 mps 744 mmHg 75%
    23:00 -3°C° 0 mm 4 mps 745 mmHg 76%

    11 December, Wednesday

    Time Temperature Precipitation Wind Pressure Humidity
    00:00 -3°C° 0 mm 4 mps 746 mmHg 76%
    01:00 -3°C° 0 mm 4 mps 746 mmHg 77%
    02:00 -3°C° 0 mm 4 mps 747 mmHg 77%
    03:00 -3°C° 0 mm 4 mps 748 mmHg 76%
    04:00 -3°C° 0 mm 4 mps 748 mmHg 74%
    05:00 -4°C° 0 mm 5 mps 749 mmHg 73%
    06:00 -3°C° 0 mm 4 mps 749 mmHg 73%
    07:00 -3°C° 0 mm 4 mps 749 mmHg 72%
    08:00 -3°C° 0 mm 4 mps 749 mmHg 72%
    09:00 -3°C° 0 mm 4 mps 750 mmHg 71%
    10:00 -2°C° 0 mm 4 mps 750 mmHg 70%
    11:00 -2°C° 0 mm 4 mps 750 mmHg 69%
    12:00 -2°C° 0 mm 4 mps 750 mmHg 69%
    13:00 -1°C° 0 mm 4 mps 750 mmHg 68%
    14:00 0°C° 0 mm 3 mps 750 mmHg 68%
    15:00 -1°C° 0 mm 3 mps 750 mmHg 70%
    16:00 -1°C° 0 mm 3 mps 750 mmHg 71%
    17:00 -2°C° 0 mm 3 mps 751 mmHg 73%
    18:00 -2°C° 0 mm 3 mps 750 mmHg 70%
    19:00 -2°C° 0 mm 4 mps 750 mmHg 67%
    20:00 -2°C° 0 mm 4 mps 750 mmHg 64%
    21:00 -2°C° 0 mm 4 mps 750 mmHg 62%
    22:00 -3°C° 0 mm 4 mps 750 mmHg 60%
    23:00 -4°C° 0 mm 5 mps 750 mmHg 59%

    12 December, Thursday

    Time Temperature Precipitation Wind Pressure Humidity
    00:00 -4°C° 0 mm 5 mps 750 mmHg 58%
    01:00 -4°C° 0 mm 5 mps 750 mmHg 57%
    02:00 -4°C° 0 mm 5 mps 749 mmHg 56%
    03:00 -4°C° 0 mm 5 mps 749 mmHg 55%
    04:00 -4°C° 0 mm 5 mps 749 mmHg 55%
    05:00 -4°C° 0 mm 5 mps 749 mmHg 54%
    06:00 -4°C° 0 mm 5 mps 749 mmHg 55%
    07:00 -5°C° 0 mm 5 mps 748 mmHg 56%
    08:00 -5°C° 0 mm 5 mps 748 mmHg 57%
    09:00 -4°C° 0 mm 5 mps 748 mmHg 56%
    10:00 -4°C° 0 mm 6 mps 748 mmHg 56%
    11:00 -3°C° 0 mm 6 mps 748 mmHg 56%
    12:00 -3°C° 0 mm 6 mps 748 mmHg 57%
    13:00 -2°C° 0 mm 5 mps 747 mmHg 58%
    14:00 -2°C° 0 mm 5 mps 747 mmHg 59%
    15:00 -2°C° 0 mm 5 mps 747 mmHg 60%
    16:00 -4°C° 0 mm 5 mps 747 mmHg 61%
    17:00 -4°C° 0 mm 5 mps 747 mmHg 63%
    18:00 -4°C° 0 mm 5 mps 746 mmHg 62%
    19:00 -4°C° 0 mm 5 mps 746 mmHg 62%
    20:00 -4°C° 0 mm 5 mps 746 mmHg 62%
    21:00 -4°C° 0 mm 5 mps 746 mmHg 61%
    22:00 -4°C° 0 mm 5 mps 746 mmHg 61%
    23:00 -4°C° 0 mm 5 mps 745 mmHg 61%
    Show more